Radioactive Concentration measured by Seawater Radiation Monitor near Fukushima Daiichi Nuclear Power Station
Date,Time,Cs137(Bq/L),Cs134(Bq/L),Total β(Bq/L)
2016/12/01,00:00,0.73,0.12,ND
2016/12/01,00:10,0.83,0.082,ND
2016/12/01,00:20,0.84,0.072,ND
2016/12/01,00:30,0.83,0.075,ND
2016/12/01,00:40,0.85,0.071,ND
2016/12/01,00:50,0.88,0.058,ND
2016/12/01,01:00,0.89,0.056,ND
2016/12/01,01:10,0.86,0.062,ND
2016/12/01,01:20,0.86,0.057,ND
2016/12/01,01:30,0.85,0.059,ND
2016/12/01,01:40,0.83,0.055,ND
2016/12/01,01:50,0.80,0.060,ND
2016/12/01,02:00,0.79,0.057,ND
2016/12/01,02:10,0.81,0.046,ND
2016/12/01,02:20,0.79,0.040,ND
2016/12/01,02:30,0.77,0.045,ND
2016/12/01,02:40,0.79,0.042,ND
2016/12/01,02:50,0.77,0.051,ND
2016/12/01,03:00,0.74,0.049,ND
2016/12/01,03:10,0.58,0.078,ND
2016/12/01,03:20,0.59,0.074,ND
2016/12/01,03:30,0.74,0.040,ND
2016/12/01,03:40,0.71,0.046,ND
2016/12/01,03:50,0.71,0.036,ND
2016/12/01,04:00,0.70,0.042,8.8
2016/12/01,04:10,0.71,0.041,ND
2016/12/01,04:20,0.71,0.042,ND
2016/12/01,04:30,0.69,0.042,ND
2016/12/01,04:40,0.69,0.042,ND
2016/12/01,04:50,0.69,0.042,ND
2016/12/01,05:00,0.70,0.041,ND
2016/12/01,05:10,0.68,0.045,ND
2016/12/01,05:20,0.64,0.045,ND
2016/12/01,05:30,0.65,0.045,ND
2016/12/01,05:40,0.65,0.045,ND
2016/12/01,05:50,0.65,0.045,ND
2016/12/01,06:00,0.64,0.048,ND
2016/12/01,06:10,0.65,0.046,ND
2016/12/01,06:20,0.66,0.045,ND
2016/12/01,06:30,0.68,0.040,ND
2016/12/01,06:40,0.69,0.041,ND
2016/12/01,06:50,0.71,0.040,ND
2016/12/01,07:00,0.73,0.044,ND
2016/12/01,07:10,0.73,0.049,ND
2016/12/01,07:20,0.61,0.096,ND
2016/12/01,07:30,0.60,0.11,ND
2016/12/01,07:40,0.63,0.10,ND
2016/12/01,07:50,0.74,0.066,ND
2016/12/01,08:00,0.62,0.11,ND
2016/12/01,08:10,0.75,0.067,ND
2016/12/01,08:20,0.74,0.057,ND
2016/12/01,08:30,0.75,0.044,ND
2016/12/01,08:40,0.73,0.064,ND
2016/12/01,08:50,0.72,0.062,ND
2016/12/01,09:00,0.72,0.063,ND
2016/12/01,09:10,0.72,0.064,ND
2016/12/01,09:20,0.70,0.072,ND
2016/12/01,09:30,0.71,0.072,ND
2016/12/01,09:40,0.74,0.063,ND
2016/12/01,09:50,0.73,0.066,ND
2016/12/01,10:00,0.75,0.061,ND
2016/12/01,10:10,0.76,0.058,ND
2016/12/01,10:20,0.78,0.060,ND
2016/12/01,10:30,0.77,0.063,ND
2016/12/01,10:40,0.76,0.059,ND
2016/12/01,10:50,0.72,0.063,ND
2016/12/01,11:00,0.73,0.056,ND
2016/12/01,11:10,0.71,0.059,ND
2016/12/01,11:20,0.73,0.052,ND
2016/12/01,11:30,0.73,0.056,ND
2016/12/01,11:40,0.75,0.065,ND
2016/12/01,11:50,0.78,0.061,ND
2016/12/01,12:00,0.81,0.054,ND
2016/12/01,12:10,0.82,0.057,ND
2016/12/01,12:20,0.81,0.068,ND
2016/12/01,12:30,0.80,0.072,ND
2016/12/01,12:40,0.80,0.065,ND
2016/12/01,12:50,0.81,0.060,ND
2016/12/01,13:00,0.77,0.066,ND
2016/12/01,13:10,0.77,0.069,ND
2016/12/01,13:20,0.76,0.074,ND
2016/12/01,13:30,0.75,0.078,ND
2016/12/01,13:40,0.75,0.085,ND
2016/12/01,13:50,0.74,0.091,ND
2016/12/01,14:00,0.76,0.091,ND
2016/12/01,14:10,0.75,0.085,9.0
2016/12/01,14:20,0.77,0.072,10
2016/12/01,14:30,0.77,0.069,12
2016/12/01,14:40,0.78,0.061,10
2016/12/01,14:50,0.78,0.051,10
2016/12/01,15:00,0.77,0.050,12
2016/12/01,15:10,0.80,0.043,9.0
2016/12/01,15:20,0.78,0.050,ND
2016/12/01,15:30,0.78,0.047,ND
2016/12/01,15:40,0.80,0.044,8.8
2016/12/01,15:50,0.78,0.060,ND
2016/12/01,16:00,0.79,0.060,ND
2016/12/01,16:10,0.76,0.068,ND
2016/12/01,16:20,0.79,0.063,ND
2016/12/01,16:30,0.77,0.064,ND
2016/12/01,16:40,0.79,0.056,ND
2016/12/01,16:50,0.78,0.049,ND
2016/12/01,17:00,0.77,0.055,ND
2016/12/01,17:10,0.79,0.049,ND
2016/12/01,17:20,0.78,0.045,ND
2016/12/01,17:30,0.76,0.051,ND
2016/12/01,17:40,0.74,0.049,ND
2016/12/01,17:50,0.77,0.047,ND
2016/12/01,18:00,0.77,0.048,ND
2016/12/01,18:10,0.75,0.052,ND
2016/12/01,18:20,-,-,-
2016/12/01,18:30,-,-,-
2016/12/01,18:40,-,-,-
2016/12/01,18:50,-,-,ND
2016/12/01,19:00,-,-,ND
2016/12/01,19:10,0.74,0.066,9.6
2016/12/01,19:20,0.73,0.066,12
2016/12/01,19:30,0.73,0.066,10
2016/12/01,19:40,0.71,0.071,9.5
2016/12/01,19:50,0.71,0.071,ND
2016/12/01,20:00,0.70,0.070,ND
2016/12/01,20:10,0.69,0.073,ND
2016/12/01,20:20,0.70,0.073,ND
2016/12/01,20:30,0.68,0.083,ND
2016/12/01,20:40,0.69,0.076,ND
2016/12/01,20:50,0.68,0.079,ND
2016/12/01,21:00,0.69,0.085,9.3
2016/12/01,21:10,0.71,0.074,ND
2016/12/01,21:20,0.71,0.070,ND
2016/12/01,21:30,0.60,0.10,ND
2016/12/01,21:40,0.61,0.10,ND
2016/12/01,21:50,0.62,0.11,ND
2016/12/01,22:00,0.61,0.11,ND
2016/12/01,22:10,0.75,0.067,ND
2016/12/01,22:20,0.77,0.071,ND
2016/12/01,22:30,0.78,0.069,ND
2016/12/01,22:40,0.80,0.076,ND
2016/12/01,22:50,0.80,0.080,ND
2016/12/01,23:00,0.84,0.076,ND
2016/12/01,23:10,0.73,0.11,ND
2016/12/01,23:20,0.72,0.11,ND
2016/12/01,23:30,0.74,0.11,ND
2016/12/01,23:40,0.73,0.11,ND
2016/12/01,23:50,0.86,0.059,ND
